GW1546 Weather Reports


Display with metric or nautical units.
time (UTC)temp
F
wind
direction
speed
MPH
gust
MPH
rain 1hr
in
rain 24hr
in
rain mn
in
humidity
%
barometer
mb
20260507023911 55 331 0.0 0.0 0.00 0.00 0.92 99 985.4
20260507023354 55 331 0.0 1.0 0.00 0.00 0.92 99 985.4
20260507022710 55 107 0.0 1.0 0.00 0.00 0.91 99 985.7
20260507022117 55 245 0.0 2.0 0.00 0.00 0.91 99 986.7
20260507021541 55 314 0.0 0.0 0.00 0.00 0.91 99 986.7
20260507020939 55 298 0.0 0.0 0.00 0.00 0.91 99 986.7
20260507020318 55 39 0.0 0.0 0.00 0.00 0.91 99 986.4
20260507015728 55 276 0.0 0.0 0.00 0.00 0.91 99 986.1
20260507015145 55 259 1.0 1.0 0.00 0.00 0.91 99 986.4
20260507014513 55 294 0.0 0.0 0.00 0.00 0.91 99 986.1
20260507013930 55 310 0.0 1.0 0.00 0.00 0.91 99 985.7
20260507013354 55 263 0.0 1.0 0.00 0.00 0.91 99 985.1
20260507012144 55 298 0.0 2.0 0.00 0.00 0.91 99 985.1
20260507011532 55 282 1.0 1.0 0.00 0.00 0.91 99 985.1
20260507010953 55 264 2.0 2.0 0.00 0.00 0.91 99 985.1
20260507010329 55 263 1.0 3.0 0.00 0.00 0.91 99 984.7
20260507005135 55 296 0.0 1.0 0.00 0.00 0.91 99 984.4
20260507004543 55 244 0.0 0.0 0.00 0.00 0.91 99 984.0
20260506212127 57 260 1.0 3.0 0.00 0.00 0.80 99 984.0
20260506210930 57 292 1.0 2.0 0.00 0.00 0.80 99 984.4
20260506210347 57 256 1.0 2.0 0.00 0.00 0.80 99 984.4
20260506204531 58 292 0.0 2.0 0.00 0.00 0.80 99 984.0
20260506203311 58 293 2.0 3.0 0.00 0.00 0.79 99 984.0
20260506202713 58 222 2.0 4.0 0.00 0.00 0.78 99 984.0
20260506201533 58 258 0.0 6.0 0.00 0.00 0.77 99 984.0
20260506200314 58 249 2.0 2.0 0.00 0.00 0.77 99 984.0
20260506195752 58 280 1.0 3.0 0.00 0.00 0.77 99 983.4
20260506194536 59 277 1.0 3.0 0.00 0.00 0.77 99 983.4
20260506193953 59 303 4.0 6.0 0.00 0.00 0.77 99 983.4
20260506193353 59 234 2.0 8.0 0.00 0.00 0.77 99 983.4
20260506192743 59 266 1.0 4.0 0.00 0.00 0.77 99 983.4
20260506192132 59 313 2.0 4.0 0.00 0.00 0.77 99 983.4
20260506191543 59 289 6.0 8.0 0.00 0.00 0.77 99 983.0
20260506190913 60 188 2.0 7.0 0.00 0.00 0.77 99 983.0
20260506190341 60 320 1.0 2.0 0.00 0.00 0.77 99 983.4
20260506185719 60 290 1.0 2.0 0.00 0.00 0.77 99 983.0
20260506184536 59 321 0.0 4.0 0.00 0.00 0.77 99 983.0
20260506183920 59 267 1.0 6.0 0.00 0.00 0.76 99 983.0
20260506183330 60 339 2.0 2.0 0.00 0.00 0.76 99 982.7
20260506182741 60 240 3.0 4.0 0.00 0.00 0.75 99 983.4
20260506181541 60 296 4.0 10.0 0.00 0.00 0.75 99 982.3
20260506180936 60 274 4.0 11.0 0.00 0.00 0.74 99 982.7
20260506180354 62 262 4.0 9.0 0.00 0.00 0.71 99 982.3
20260506175748 64 263 6.0 10.0 0.00 0.00 0.67 99 982.3
20260506175127 64 261 0.0 0.0 0.00 0.00 0.62 99
20260506174531 64 279 0.0 1.0 0.00 0.00 0.62 99
20260506173943 64 241 1.0 1.0 0.00 0.00 0.61 99
20260506173318 64 257 2.0 3.0 0.00 0.00 0.60 99
20260506172712 65 249 1.0 2.0 0.00 0.00 0.60 99 982.3
20260506172141 65 250 3.0 3.0 0.00 0.00 0.60 99 982.3
20260506170953 65 274 2.0 2.0 0.00 0.00 0.60 99 982.3
20260506170310 65 267 0.0 1.0 0.00 0.00 0.60 99
20260506163946 64 315 0.0 0.0 0.00 0.00 0.60 99
20260506163334 64 353 0.0 0.0 0.00 0.00 0.59 99 982.3
20260506162749 64 353 0.0 0.0 0.00 0.00 0.59 99
20260506162115 64 353 0.0 0.0 0.00 0.00 0.59 99
20260506161546 64 24 0.0 1.0 0.00 0.00 0.59 99
20260506160934 64 232 1.0 1.0 0.00 0.00 0.57 99
20260506160351 64 127 0.0 0.0 0.00 0.00 0.57 99
20260506155712 64 230 0.0 0.0 0.00 0.00 0.57 99
20260506155128 64 79 1.0 2.0 0.00 0.00 0.57 99
20260506154542 64 190 2.0 3.0 0.00 0.00 0.57 99
20260506153930 64 86 0.0 1.0 0.00 0.00 0.57 99
20260506153334 64 139 0.0 1.0 0.00 0.00 0.57 99
20260506152733 64 73 1.0 2.0 0.00 0.00 0.57 99
20260506151533 64 90 1.0 1.0 0.00 0.00 0.57 99
20260506150933 64 190 1.0 1.0 0.00 0.00 0.57 99
20260506150311 64 48 0.0 0.0 0.00 0.00 0.57 99
20260506145750 64 66 1.0 1.0 0.00 0.00 0.57 99
20260506145133 64 57 1.0 1.0 0.00 0.00 0.57 99
20260506144538 64 143 0.0 0.0 0.00 0.00 0.57 99
20260506143929 64 222 0.0 1.0 0.00 0.00 0.57 99
20260506143317 64 356 1.0 1.0 0.00 0.00 0.57 99
20260506142716 64 353 0.0 2.0 0.00 0.00 0.57 99
20260506142117 64 63 1.0 2.0 0.00 0.00 0.57 99
20260506141523 64 11 2.0 2.0 0.00 0.00 0.57 99
20260506140935 64 90 1.0 1.0 0.00 0.00 0.57 99
20260506140343 64 20 2.0 2.0 0.00 0.00 0.57 99
20260506135734 64 326 0.0 1.0 0.00 0.00 0.57 99
20260506135139 63 68 1.0 2.0 0.00 0.00 0.57 99
20260506134512 63 91 2.0 2.0 0.00 0.00 0.57 99
20260506133920 62 112 2.0 3.0 0.00 0.00 0.57 99
20260506133350 62 164 0.0 2.0 0.00 0.00 0.57 99
20260506132744 62 6 5.0 7.0 0.00 0.00 0.57 99
20260506132120 61 77 1.0 2.0 0.00 0.00 0.57 99
20260506131514 61 113 2.0 3.0 0.00 0.00 0.57 99
20260506130920 60 105 2.0 3.0 0.00 0.00 0.57 99
20260506125727 60 88 0.0 2.0 0.00 0.00 0.57 99
20260506125146 60 115 1.0 2.0 0.00 0.00 0.57 99
20260506124511 60 60 2.0 2.0 0.00 0.00 0.57 99
20260506123932 60 85 1.0 2.0 0.00 0.00 0.57 99
20260506123320 60 94 1.0 2.0 0.00 0.00 0.57 99
20260506122715 60 106 1.0 2.0 0.00 0.00 0.57 99
20260506122149 60 95 1.0 1.0 0.00 0.00 0.57 99
20260506121518 60 137 1.0 3.0 0.00 0.00 0.57 99
20260506120310 59 102 2.0 2.0 0.00 0.00 0.57 99
20260506115715 59 91 0.0 2.0 0.00 0.00 0.57 99
20260506115122 59 119 1.0 3.0 0.00 0.00 0.57 99
20260506114533 59 97 1.0 2.0 0.00 0.00 0.56 99
20260506113948 59 89 2.0 3.0 0.00 0.00 0.52 99
20260506112733 58 104 1.0 2.0 0.00 0.00 0.49 99
20260506111515 58 99 1.0 2.0 0.00 0.00 0.48 99
20260506110913 58 105 2.0 2.0 0.00 0.00 0.47 99
20260506105711 58 103 2.0 2.0 0.00 0.00 0.47 99
20260506105146 58 103 1.0 2.0 0.00 0.00 0.47 99
20260506103921 58 92 2.0 2.0 0.00 0.00 0.47 99
20260506103351 58 91 2.0 2.0 0.00 0.00 0.47 99
20260506102708 58 91 2.0 3.0 0.00 0.00 0.47 99
20260506102109 58 103 1.0 2.0 0.00 0.00 0.47 99
20260506100950 58 92 1.0 1.0 0.00 0.00 0.46 99
20260506095711 58 118 1.0 2.0 0.00 0.00 0.46 99
20260506095149 58 91 1.0 2.0 0.00 0.00 0.44 99
20260506094538 58 100 0.0 1.0 0.00 0.00 0.42 99
20260506093321 58 71 1.0 1.0 0.00 0.00 0.41 99
20260506092747 58 343 0.0 0.0 0.00 0.00 0.40 99
20260506092113 58 113 0.0 1.0 0.00 0.00 0.37 99
20260506090323 58 115 0.0 1.0 0.00 0.00 0.30 99
20260506085736 58 105 0.0 2.0 0.00 0.00 0.28 99
20260506085114 58 101 0.0 0.0 0.00 0.00 0.27 99
20260506083926 58 95 0.0 1.0 0.00 0.00 0.26 99
20260506083337 58 94 0.0 1.0 0.00 0.00 0.25 99
20260506082737 58 104 0.0 1.0 0.00 0.00 0.21 99
20260506082142 58 105 0.0 1.0 0.00 0.00 0.20 99
20260506081514 59 104 0.0 0.0 0.00 0.00 0.19 99
20260506080930 59 106 0.0 1.0 0.00 0.00 0.18 98
20260506080318 59 86 0.0 1.0 0.00 0.00 0.15 98
20260506073309 62 247 0.0 1.0 0.00 0.00 0.01 85
20260506072709 63 117 1.0 2.0 0.00 0.00 0.00 80
20260506072143 63 108 1.0 2.0 0.00 0.00 0.00 77
20260506071550 63 153 2.0 4.0 0.00 0.00 0.00 79
20260506070908 62 82 1.0 3.0 0.00 0.00 0.00 80
20260506070330 62 26 1.0 2.0 0.00 0.00 0.00 80
20260506062127 61 103 2.0 3.0 0.00 0.00 0.00 83
20260506061510 61 162 0.0 2.0 0.00 0.00 0.00 83
20260506060342 60 92 1.0 3.0 0.00 0.00 0.00 84
20260506050949 60 76 1.0 2.0 0.00 0.00 0.00 84
20260506050336 60 105 2.0 3.0 0.00 0.00 0.00 85
20260506044516 61 239 1.0 2.0 0.00 0.00 0.00 82
20260506043920 61 136 0.0 2.0 0.00 0.00 0.00 81
20260506042725 62 114 1.0 2.0 0.00 0.00 0.00 81
20260506042128 61 107 1.0 1.0 0.00 0.00 0.00 81
20260506041543 62 97 1.0 1.0 0.00 0.00 0.00 81
20260506040349 62 92 1.0 2.0 0.00 0.00 0.00 81
20260506035712 62 194 1.0 1.0 0.00 0.00 0.00 80
20260506035141 61 122 1.0 1.0 0.00 0.00 0.00 80
20260506033949 62 194 1.0 2.0 0.00 0.00 0.00 81
20260506033317 61 113 0.0 1.0 0.00 0.00 0.00 81
20260506032715 61 70 0.0 1.0 0.00 0.00 0.00 81
20260506032147 62 229 0.0 1.0 0.00 0.00 0.00 81
20260506031550 62 110 1.0 2.0 0.00 0.00 0.00 78
20260506030915 62 191 0.0 1.0 0.00 0.00 0.00 81
20260506030347 62 203 0.0 0.0 0.00 0.00 0.00 79
20260506025746 62 145 1.0 2.0 0.00 0.00 0.00 80
20260506025129 63 15 0.0 0.0 0.00 0.00 0.00 76
20260506024518 63 75 2.0 3.0 0.00 0.00 0.00 77